Terminal Aerodrome Forecast
Issued by NWS

Home | Current Version | Previous Version | Graphics & Text | Print | Product List | Glossary On
Versions: 1 2 3 4 5 6 7 8 9 10 11 12 13 14 15 16 17 18 19 20 21
000
FTUS45 KGGW 251800 AAA
TAFSDY
TAF AMD
KSDY 251851Z 2519/2618 26014G24KT P6SM SCT015 BKN060
     FM260400 33009KT 6SM BR OVC020
     FM260900 VRB05KT P6SM OVC007
      AMD LTD TO CLD VIS AND WIND=

USA.gov is the U.S. government's official web portal to all federal, state and local government web resources and services.